This demonstration page uses our WeatherBlox Daily Observations layout. Learn more.

Left ArrowRight Arrow

38.89511, -77.03637

Hourly Observations for August 1, 2021

Temp ( °F °C ) Dew Point ( °F °C ) Humidity (%) Winds ( mph kmh ) Pressure ( in mb ) Visibility ( mi km ) Precip ( " mm )
12:52 am 00:52 Cloudy with Light Rain 74 23.3 64 17.8 71 71 S 9 15 29.93 1014 10 16 0.00 0.00
1:52 am 01:52 Cloudy 72 22.2 66 18.9 82 82 SSW 7 11 29.91 1013 10 16 0.00 0.00
2:52 am 02:52 Cloudy with Light Rain 72 22.2 68 20 87 87 SE 7 11 29.90 1013 10 16 0.04 1.02
3:13 am 03:13 Cloudy 72 22.2 68 20 87 87 S 3 6 29.90 1012 10 16 0.00 0.00
3:52 am 03:52 Cloudy 72 22.2 68 20 87 87 S 5 7 29.90 1013 10 16 0.00 0.00
4:25 am 04:25 Cloudy with Light Rain 72 22.2 68 20 87 87 S 6 9 29.90 1012 10 16 0.00 0.00
4:52 am 04:52 Cloudy 72 22.2 68 20 87 87 SSW 7 11 29.90 1012 10 16 0.00 0.00
5:52 am 05:52 Cloudy with Rain 71 21.7 68 20 90 90 SW 5 7 29.90 1012 4 6 0.04 1.02
6:52 am 06:52 Cloudy with Rain 71 21.7 68 20 90 90 N N/A 29.90 1013 3 5 0.20 5.08
7:52 am 07:52 Cloudy 72 22.2 68 20 87 87 SSE 6 9 29.89 1012 10 16 0.04 1.02
8:52 am 08:52 Cloudy 73 22.8 68 20 84 84 S 3 6 29.89 1012 10 16 N/A
9:52 am 09:52 Cloudy 74 23.3 68 20 82 82 SSW 6 9 29.88 1012 10 16 N/A
10:08 am 10:08 Cloudy 74 23.3 68 20 82 82 S 5 7 29.88 1012 10 16 N/A
10:52 am 10:52 Cloudy with Light Rain 74 23.3 67 19.4 79 79 S 6 9 29.88 1012 10 16 0.00 0.00
11:46 am 11:46 Mostly Cloudy with Light Rain 75 24 66 19 74 74 SSE 9 15 29.89 1012 10 16 0.00 0.00
11:52 am 11:52 Mostly Cloudy with Light Rain 76 24.4 68 20 77 77 S 9 15 29.88 1012 10 16 0.00 0.00
11:59 am 11:59 Mostly Cloudy 76 24.4 67 19.4 74 74 S 9 15 29.89 1012 10 16 0.00 0.00
12:52 pm 12:52 Cloudy 75 23.9 66 18.9 74 74 S 14 22 29.88 1012 10 16 0.00 0.00
1:08 pm 13:08 Cloudy with Light Rain 72 22.2 65 18.3 79 79 SSW 8 13 29.88 1012 5 8 0.02 0.51
1:20 pm 13:20 Cloudy with Light Rain 72 22.2 65 18.3 79 79 SSW 5 7 29.88 1012 3 5 0.02 0.51
1:52 pm 13:52 Cloudy 74 23.3 66 18.9 76 76 WNW 7 11 29.87 1012 9 14 0.02 0.51
2:52 pm 14:52 Cloudy 76 24.4 68 20 77 77 W 7 11 29.85 1011 10 16 0.00 0.00
3:52 pm 15:52 Cloudy 77 25 67 19.4 71 71 SSW 7 11 29.84 1010 10 16 N/A
4:52 pm 16:52 Mostly Cloudy 79 26.1 67 19.4 67 67 SW 6 9 29.82 1010 10 16 N/A
4:55 pm 16:55 Mostly Cloudy 79 26.1 67 19.4 67 67 WSW 7 11 29.82 1010 10 16 N/A
5:10 pm 17:10 Mostly Cloudy 79 26.1 68 20 69 69 SE 6 9 29.82 1010 10 16 N/A
5:14 pm 17:14 Mostly Cloudy 80 26.7 69 20.6 69 69 SE 7 11 29.82 1010 10 16 N/A
5:25 pm 17:25 Mostly Cloudy 80 26.7 68 20 67 67 SSE 6 9 29.81 1009 10 16 N/A
5:52 pm 17:52 Partly Cloudy 80 26.7 68 20 67 67 SSE 6 9 29.81 1009 10 16 N/A
6:52 pm 18:52 Mostly Cloudy 81 27.2 67 19.4 62 62 NE 3 6 29.81 1010 10 16 N/A
7:52 pm 19:52 Mostly Cloudy 79 26.1 67 19.4 67 67 SSW 3 6 29.83 1010 10 16 N/A
8:52 pm 20:52 Mostly Cloudy 76 24.4 70 21.1 82 82 ESE 8 13 29.83 1010 10 16 N/A
9:52 pm 21:52 Mostly Cloudy with Light Rain 75 23.9 70 21.1 84 84 W 6 9 29.87 1012 10 16 0.01 0.25
10:52 pm 22:52 Mostly Cloudy 74 23.3 67 19.4 79 79 NNW 8 13 29.89 1012 10 16 0.00 0.00
11:52 pm 23:52 Cloudy 73 22.8 63 17.2 71 71 N 8 13 29.91 1013 10 16 N/A

Powered by AerisWeather